Lapse_Rate
6.4 6.3 6.7 7.2 7.4 7.4 7.7 8.1 8.6 9.2 8.9 8.4 8.7 7.3 7.4 7.7 7.5 7.4 7.3 7.2 7.0 6.8 6.6 6.5 6.5 6.5 6.7 6.8 6.3 6.3 6.3 6.3 6.2 6.1 6.1 6.2 6.3 6.2 6.1 6.1 6.2 6.2 6.3 6.2
6.5 6.4 7.2 7.1 7.2 7.5 7.6 8.1 8.6 8.8 8.3 8.2 8.5 7.7 6.9 7.5 7.5 7.4 7.4 7.3 7.0 6.7 6.6 6.6 6.7 6.6 6.8 6.4 6.3 6.2 6.2 6.1 6.1 6.1 6.2 6.2 6.1 6.1 6.0 5.9 6.0 6.0 6.0 6.1
6.8 7.0 7.1 7.0 7.1 7.3 7.6 8.1 8.7 9.1 9.1 8.0 8.4 8.5 7.1 7.4 7.7 7.3 7.1 7.0 6.8 6.5 6.5 6.6 6.6 6.6 6.6 6.3 6.1 5.9 5.9 5.8 6.0 6.0 5.8 5.8 5.7 5.9 6.3 6.4 6.1 6.0 6.0 5.9
7.0 7.1 7.1 6.9 7.2 7.6 7.8 8.4 8.6 8.5 8.9 8.6 9.2 8.9 7.1 7.8 7.7 7.2 7.0 6.9 6.7 6.0 6.3 6.3 6.5 6.5 6.5 6.2 6.0 5.7 5.8 5.8 5.8 5.8 5.8 5.9 5.8 5.8 5.6 5.6 5.9 5.8 5.9 6.0
7.0 7.2 7.3 6.9 7.4 7.8 8.1 8.2 8.5 8.5 8.8 8.6 8.9 9.2 9.4 7.7 6.9 7.4 6.8 6.6 6.3 5.6 6.1 6.4 6.4 6.4 6.4 6.3 6.0 5.8 5.9 5.9 5.8 5.8 5.8 5.8 5.8 5.7 5.8 5.9 6.0 6.1 6.1 5.7
7.0 7.4 7.5 6.8 7.5 7.8 8.2 8.0 8.3 8.4 8.6 8.6 8.6 9.1 8.0 7.3 6.9 6.5 6.4 6.0 5.8 5.6 5.9 6.3 6.2 6.3 6.4 6.3 6.1 6.1 6.0 5.9 5.9 5.8 5.8 5.8 5.7 5.7 5.9 5.9 6.0 6.2 6.2 6.1
7.2 7.2 7.6 7.6 7.8 7.9 7.8 8.0 8.4 8.6 8.4 8.5 9.3 9.4 8.8 7.8 7.7 7.0 6.9 6.2 5.9 5.8 5.8 6.0 6.4 6.5 6.5 6.4 6.3 6.2 6.3 6.1 6.0 5.9 5.9 5.9 5.8 5.9 5.9 6.0 5.9 5.8 5.9 5.9
7.4 7.7 7.3 7.4 7.5 8.4 8.1 8.4 8.7 8.4 8.6 8.3 8.0 8.9 8.6 7.8 7.9 7.8 7.0 6.6 6.2 5.9 5.9 6.1 6.5 6.5 6.6 6.3 6.3 6.4 6.4 6.3 6.1 6.1 6.0 5.9 5.9 6.0 5.9 5.8 5.9 5.8 5.8 5.8
7.8 8.0 8.8 8.8 7.9 8.4 8.7 8.2 8.2 8.8 8.7 8.2 7.1 7.9 8.1 7.6 7.8 7.7 7.1 6.7 6.4 6.1 6.1 6.3 6.3 6.8 6.5 6.5 6.5 6.4 6.3 6.3 6.2 5.9 5.8 5.8 5.7 5.7 5.8 5.8 5.7 5.8 5.6 5.6
7.9 8.3 8.8 8.9 8.7 8.1 8.2 8.8 8.8 8.9 8.3 8.4 9.1 9.1 8.3 7.6 7.3 7.5 7.2 6.8 6.5 6.3 6.2 6.2 6.1 6.7 6.5 6.6 6.5 6.3 6.2 6.2 6.1 6.0 5.9 5.8 5.7 5.7 5.6 5.6 5.6 5.7 5.7 5.6
8.0 8.0 8.1 8.4 7.8 8.3 8.2 8.3 8.4 8.9 8.7 8.6 8.3 8.1 7.8 7.7 7.3 7.3 7.1 6.9 6.6 6.4 6.2 6.2 6.1 5.7 6.2 6.6 6.5 6.4 6.1 6.0 6.0 5.9 5.8 5.5 5.7 5.6 5.6 5.6 5.5 5.6 5.6 5.5
7.7 7.4 7.4 7.9 8.1 8.3 8.3 8.3 8.7 8.7 8.1 8.2 8.4 7.7 7.8 7.8 7.6 7.1 7.0 6.9 6.7 6.5 6.4 6.2 5.8 5.7 6.0 6.2 6.3 6.5 6.2 6.0 6.1 6.0 5.8 5.5 5.4 5.5 5.6 5.6 5.6 5.5 5.6 5.6
7.6 7.6 6.8 6.8 7.9 8.0 8.2 8.4 8.7 8.7 8.3 7.5 7.7 8.1 7.9 7.7 7.7 7.5 7.1 6.8 6.5 6.8 6.6 6.1 6.1 6.2 6.6 6.5 6.4 6.4 6.4 6.3 6.3 5.9 5.7 5.5 5.3 5.5 5.4 5.6 5.4 5.5 5.6 5.6
7.3 7.6 7.4 5.9 6.7 7.7 8.3 8.5 8.5 8.3 7.6 7.5 7.7 8.0 7.7 7.3 7.7 7.2 6.9 6.8 7.1 6.9 6.5 6.4 5.9 6.3 6.7 6.7 6.6 6.5 6.6 6.5 6.3 6.1 5.8 5.6 5.6 5.6 5.6 5.4 5.4 5.6 5.5 5.6
7.3 7.4 7.3 6.7 6.7 7.1 7.5 8.1 8.1 8.4 7.9 8.0 8.0 8.3 8.6 7.5 7.5 7.3 6.8 6.9 6.8 6.9 6.5 6.5 6.0 6.1 6.5 6.6 6.6 6.7 6.7 6.6 6.4 6.2 6.0 5.6 5.7 5.5 5.5 5.4 5.6 5.6 5.5 5.6
7.2 7.1 7.0 6.5 7.0 7.2 6.8 7.4 6.8 7.6 7.9 8.2 8.1 8.1 8.5 8.4 7.6 7.1 7.4 6.9 6.6 6.6 6.7 6.4 6.3 6.1 6.6 6.7 6.6 6.6 6.7 6.7 6.2 6.2 5.8 5.5 5.4 5.4 5.5 5.6 5.6 5.5 5.5 5.5
7.3 7.3 7.1 6.4 7.4 7.7 7.5 7.4 7.6 7.8 8.0 8.0 7.9 7.9 8.0 7.2 6.9 6.7 6.7 6.5 6.4 6.4 6.5 6.5 6.2 6.3 6.6 6.7 6.6 6.6 6.5 6.4 6.2 6.0 5.7 5.5 5.5 5.6 5.7 5.6 5.5 5.5 5.5 5.5
7.0 6.9 7.0 6.8 7.3 6.8 7.4 7.4 7.7 7.7 7.6 7.8 7.7 7.6 7.1 6.7 6.8 6.9 6.8 6.7 6.8 6.6 6.4 6.7 6.6 6.5 6.6 6.5 6.7 6.4 6.4 6.3 6.3 6.0 5.7 5.5 5.7 5.8 5.8 5.7 5.6 5.5 5.5 5.4
6.7 6.8 6.7 6.5 7.1 7.3 7.3 7.4 7.5 7.1 7.2 7.3 7.2 7.0 6.7 6.5 6.7 5.9 6.4 6.4 6.5 6.5 6.5 6.4 6.4 6.5 6.5 6.5 6.6 6.5 6.3 6.3 6.2 5.9 5.7 5.8 5.9 5.9 5.8 5.8 5.6 5.5 5.5 5.5
6.3 6.3 6.3 6.2 6.6 7.1 7.4 7.3 7.4 6.9 7.0 7.4 6.9 6.8 6.5 6.3 6.3 5.7 6.0 6.2 6.5 6.7 6.6 6.4 6.3 6.4 6.4 6.4 6.4 6.4 6.2 5.9 5.8 5.8 5.8 5.9 5.9 5.9 5.8 5.7 5.5 5.6 5.6 5.5
6.4 6.2 6.2 6.4 6.3 6.5 7.1 6.9 7.1 6.7 6.9 7.1 7.0 6.6 6.5 6.3 6.2 6.5 6.2 6.5 6.7 6.6 6.6 6.5 6.4 6.3 6.2 6.2 6.1 6.0 5.8 5.8 5.6 5.7 5.9 5.9 5.8 5.8 5.8 5.8 5.9 5.8 5.7 5.5
6.3 6.2 6.1 6.1 6.0 5.7 7.1 6.4 6.9 6.7 6.7 6.7 6.6 6.1 6.0 6.0 6.1 6.2 6.2 5.8 5.8 6.3 6.4 6.5 6.4 6.2 6.0 6.0 5.9 5.8 5.7 5.6 5.6 5.7 6.0 5.9 5.8 5.9 5.8 5.8 6.1 6.1 5.8 5.6
6.1 6.3 6.3 6.5 6.3 6.5 6.6 6.6 6.9 6.4 6.4 6.1 6.1 6.1 5.9 5.7 5.7 5.6 5.6 5.7 5.5 5.4 5.5 6.0 6.1 5.8 5.8 5.8 5.8 5.7 5.7 5.5 5.6 5.8 6.1 6.0 6.0 6.1 6.1 6.1 6.2 6.0 5.9 5.7
6.6 6.5 6.4 6.4 6.4 6.4 6.2 6.4 6.7 6.6 6.3 6.3 6.0 5.9 5.7 5.6 5.7 5.7 5.6 5.5 5.6 5.7 5.7 5.6 5.4 5.3 5.6 5.8 5.7 5.7 5.7 5.7 5.8 6.0 6.2 6.2 6.1 6.3 6.2 6.1 6.2 6.1 5.9 5.7
6.8 6.6 6.4 6.2 6.3 6.2 6.1 6.3 6.1 5.9 5.7 5.8 5.8 5.9 5.9 5.9 5.8 5.8 5.8 5.8 5.8 5.9 5.9 5.9 5.7 5.5 5.4 5.4 5.5 5.8 6.0 5.9 6.3 6.3 6.1 6.1 6.1 6.4 6.2 6.3 6.4 6.0 6.0 5.9
6.7 6.8 6.5 6.5 6.6 6.3 6.3 6.1 5.9 5.9 5.9 5.8 5.7 5.7 5.7 5.6 5.6 5.7 5.8 5.8 5.8 5.8 5.8 5.8 5.6 5.6 5.5 5.5 5.7 5.3 6.1 6.3 6.5 6.6 6.6 6.4 6.4 6.6 6.7 6.4 6.3 6.0 5.9 5.9
Wind_Speed
12 6 10 14 8 7 9 12 13 1 9 2 4 18 16 13 12 11 9 8 9 10 13 12 12 12 13 11 10 10 9 8 5 5 5 4 4 4 8 12 14 14 15 14
9 9 16 19 2 5 9 13 13 6 7 1 12 15 17 16 14 12 12 10 11 14 14 14 13 13 11 10 10 10 9 8 5 4 3 4 4 6 10 12 12 14 14 16
16 17 10 3 6 8 12 13 13 15 10 8 13 10 17 15 11 12 12 12 14 15 15 14 14 13 11 10 9 9 9 6 4 8 6 5 6 7 5 6 7 11 14 13
17 15 17 10 10 12 13 13 14 8 6 10 15 11 17 20 14 14 14 15 16 15 14 14 14 13 13 10 9 8 8 6 6 9 7 8 5 5 4 5 8 10 12 11
17 13 16 14 16 16 12 6 5 8 11 12 16 10 14 23 18 17 16 18 18 15 15 15 14 14 13 11 8 6 7 8 7 4 5 3 7 5 4 5 6 7 13 12
19 18 13 14 15 14 12 5 10 9 11 11 16 14 8 14 18 20 21 21 20 17 16 15 14 14 12 11 10 7 8 7 6 5 4 3 6 5 5 4 3 4 4 11
21 20 16 11 15 17 11 9 8 9 9 11 17 12 7 13 11 22 19 21 20 18 17 16 16 14 13 12 10 8 9 9 7 6 6 6 5 5 6 4 4 3 4 4
18 18 19 15 19 14 15 14 8 12 5 5 13 6 7 13 6 16 19 16 17 18 16 16 16 14 14 13 12 10 10 9 8 6 6 5 6 3 4 5 4 4 4 4
16 21 19 25 14 19 14 15 17 15 12 7 7 5 6 9 9 8 16 17 17 17 17 16 15 14 14 14 12 10 10 10 9 7 6 5 3 4 6 6 4 4 5 7
15 15 8 8 14 18 17 11 10 7 6 9 8 14 7 12 9 9 15 16 17 17 17 15 14 14 13 14 12 10 8 9 10 9 6 5 5 5 5 4 5 5 6 4
12 7 4 10 12 15 12 13 10 9 8 4 4 4 7 10 10 7 10 11 14 16 17 16 14 14 13 13 13 11 8 9 9 8 7 7 6 5 5 5 4 5 5 3
10 3 4 9 14 19 13 15 14 3 7 2 2 4 4 4 5 11 9 11 9 13 15 13 13 11 10 13 12 12 9 9 9 8 7 7 7 6 5 6 5 5 4 4
10 7 4 9 7 8 10 14 9 10 2 9 5 2 6 6 5 8 10 11 12 12 12 12 12 11 11 10 11 12 11 10 10 9 9 9 8 6 6 6 5 7 3 3
3 3 5 5 6 6 11 11 10 6 2 6 8 10 5 5 7 4 4 4 5 10 13 12 13 12 10 8 10 11 11 10 10 10 10 8 7 7 6 6 5 5 4 2
3 8 1 1 9 6 12 6 8 11 13 7 10 12 7 14 1 5 7 5 5 6 11 12 12 12 12 10 9 11 11 10 11 9 9 9 7 6 7 6 5 5 4 4
6 4 7 6 7 4 8 5 11 10 10 13 13 13 9 8 5 2 4 5 7 6 10 12 12 14 14 13 12 11 11 10 9 9 9 9 9 7 6 6 6 6 6 5
9 3 8 7 9 11 10 12 13 12 14 15 15 12 8 5 7 6 6 6 6 5 5 5 11 12 13 13 12 11 10 9 10 10 9 10 9 8 7 7 7 6 6 5
5 9 4 3 2 5 7 5 7 9 12 13 15 10 2 6 6 7 6 7 7 7 6 6 5 9 11 11 12 11 10 11 11 9 10 10 10 9 8 8 7 6 5 5
5 2 3 3 8 7 7 11 7 6 9 11 9 3 4 3 4 4 7 7 7 8 8 6 4 7 10 13 14 12 12 12 12 12 11 11 11 10 9 8 7 6 6 5
7 2 4 3 4 6 5 1 10 2 6 8 6 7 3 1 1 4 5 3 4 4 5 5 3 7 9 11 14 14 13 13 14 13 11 10 10 10 9 7 7 5 4 4
6 3 5 4 3 6 2 9 8 3 2 7 8 8 6 3 3 4 3 3 3 3 5 1 3 6 8 12 13 13 14 14 14 12 11 11 10 9 8 7 5 5 5 5
10 8 5 7 5 9 9 11 6 4 5 5 4 5 5 3 2 4 8 4 3 4 6 5 5 7 9 14 13 14 15 14 14 13 13 11 10 9 7 7 6 6 6 5
10 7 5 8 5 4 5 9 8 1 1 4 4 2 5 5 7 8 5 8 8 6 7 8 8 8 10 12 14 15 16 15 14 13 13 12 11 10 8 8 6 5 6 5
10 16 6 7 9 7 5 8 5 3 2 5 4 5 6 6 8 10 7 7 9 10 7 8 10 10 10 12 14 15 12 14 14 14 13 11 10 9 7 5 4 5 4 4
7 9 8 5 5 5 9 7 4 5 5 7 8 8 8 9 10 9 9 9 7 10 9 7 9 10 11 12 13 11 10 10 10 11 10 10 9 11 9 8 6 4 4 4
10 8 9 5 6 7 7 8 9 10 11 7 7 8 10 11 12 12 11 10 11 9 9 8 7 7 9 8 8 10 8 6 9 10 10 8 8 8 7 7 3 7 9 8
Wind_Direction
239 245 253 253 317 239 311 301 301 225 91 340 324 143 158 168 165 169 159 168 158 174 178 147 124 123 117 121 129 124 125 132 150 158 141 151 121 107 93 80 73 65 43 48
245 244 249 264 94 293 281 273 266 99 104 241 266 153 151 171 171 177 169 170 184 175 157 144 141 131 134 143 138 136 149 179 165 167 98 91 94 96 103 97 77 69 58 39
226 233 0 216 224 247 249 257 261 268 159 212 269 174 151 165 163 175 172 176 200 168 166 157 153 147 141 147 146 160 167 176 142 100 100 93 115 142 146 130 91 70 65 57
254 239 252 222 243 236 253 248 253 291 230 258 221 255 160 162 168 182 179 192 205 176 167 169 162 159 153 153 170 164 154 156 134 167 155 183 171 119 92 95 115 102 75 66
250 230 243 238 237 241 249 318 249 250 257 262 262 234 230 157 172 186 194 200 200 176 167 175 171 165 164 157 166 160 153 164 159 190 160 175 96 140 124 120 135 136 110 76
243 263 245 215 245 245 256 221 253 260 262 255 251 257 156 178 189 180 186 191 187 170 172 176 173 164 164 165 162 153 178 146 161 151 134 99 112 115 126 106 132 115 109 104
245 233 251 247 235 229 229 227 234 230 231 246 246 239 128 166 189 169 178 188 171 166 173 176 173 175 164 167 159 166 182 161 159 153 154 130 122 102 109 147 75 35 85 78
226 236 226 202 231 222 212 227 234 232 245 354 317 253 120 133 130 164 168 167 164 166 173 178 176 176 164 169 168 182 179 166 160 152 133 121 124 144 104 53 89 75 86 81
249 252 227 221 190 240 211 218 245 264 271 203 216 109 116 143 148 169 155 164 172 172 177 179 177 176 168 170 174 184 177 167 158 152 132 129 118 120 90 105 126 100 66 144
241 265 274 132 184 217 246 236 223 238 251 265 253 227 140 163 164 169 158 172 174 176 182 183 182 175 177 171 170 177 187 163 153 143 143 143 130 116 120 120 90 96 124 98
228 290 200 180 206 221 212 231 246 227 223 244 275 77 169 149 149 168 169 179 180 182 185 187 190 182 178 165 166 167 180 157 151 148 155 137 136 124 137 133 138 135 126 112
232 188 225 224 215 227 221 212 229 197 228 153 186 154 71 101 142 161 181 179 193 187 190 185 179 173 169 163 167 168 176 160 154 161 152 140 131 151 158 147 149 136 168 149
221 168 187 326 199 224 242 211 217 213 182 180 246 182 136 134 170 155 183 186 186 194 199 180 182 175 175 182 174 170 174 169 161 164 156 155 156 163 169 156 155 160 172 181
299 270 156 196 314 320 217 231 200 150 86 244 217 252 157 232 206 187 186 227 217 192 195 195 181 175 170 182 176 175 174 167 166 163 171 167 164 169 163 160 162 168 181 219
223 252 99 106 217 258 230 249 261 234 206 218 238 258 218 223 128 164 192 243 253 283 203 195 177 173 165 177 183 181 167 174 162 178 179 164 165 172 165 157 169 177 172 229
177 215 147 235 210 209 294 217 239 256 263 260 264 262 272 304 57 19 306 280 275 264 292 189 185 174 175 182 188 176 167 164 174 190 182 164 172 179 164 165 183 184 190 204
172 207 204 231 219 241 235 235 249 253 248 250 254 260 285 340 324 336 320 285 247 234 234 279 191 186 177 180 172 169 167 164 174 195 187 176 176 185 175 183 188 193 200 212
205 203 193 249 214 230 237 237 290 269 279 262 256 253 328 38 6 321 319 319 323 312 288 223 234 178 167 155 159 157 170 162 198 192 193 185 180 189 187 189 194 188 197 204
222 238 124 214 216 260 193 205 204 222 258 234 256 245 91 72 283 68 38 18 351 341 337 318 180 147 149 151 158 169 165 195 186 198 197 192 184 194 192 195 191 189 195 202
223 252 160 171 227 236 229 36 152 239 259 239 173 109 148 77 51 119 56 33 340 321 301 301 123 129 148 157 156 164 189 194 194 198 199 193 188 194 197 192 184 192 180 202
180 188 184 179 219 282 29 134 112 177 220 81 122 144 147 202 45 344 8 331 70 318 279 241 156 155 164 142 156 179 195 200 198 191 195 195 189 191 192 183 179 173 186 186
179 176 186 206 198 241 234 143 179 101 110 141 172 156 160 187 286 307 310 298 261 221 257 198 187 182 179 163 176 195 202 200 197 191 192 193 187 187 193 184 177 175 188 207
199 202 173 182 208 200 253 214 189 335 1 195 203 272 356 332 296 302 281 301 300 264 215 213 213 195 180 186 188 199 206 201 193 190 190 190 186 186 187 184 180 191 190 192
191 197 211 194 231 188 206 139 153 231 200 308 324 299 313 314 308 297 293 277 283 283 251 226 203 202 196 199 202 210 203 199 191 193 191 185 182 183 186 176 183 186 191 181
185 184 197 240 234 171 187 219 244 275 250 262 294 297 296 287 290 293 293 293 280 282 277 255 235 203 210 200 202 206 205 198 199 189 190 190 186 187 188 188 196 189 188 175
222 206 197 215 208 244 222 198 226 244 253 276 312 309 306 307 300 303 298 299 293 272 297 301 281 245 206 208 192 192 175 189 201 198 191 183 186 182 186 185 131 71 124 126